Regional Weather Roundup
Issued by NWS

Home | Current Version | Previous Version | Graphics & Text | Print | Product List | Glossary On
Versions: 1 2 3 4 5 6 7 8 9 10 11 12 13 14 15 16 17 18 19 20 21 22 23 24 25 26 27 28 29 30 31 32 33 34 35 36 37 38 39 40 41 42 43 44 45 46 47 48 49 50
000
ASUS43 KLOT 241003
RWRIL

ILLINOIS REGIONAL WEATHER ROUNDUP
NATIONAL WEATHER SERVICE CHICAGO/ROMEOVILLE IL
400 AM CST FRI NOV 24 2017

NOTE: "FAIR" INDICATES FEW OR NO CLOUDS BELOW 12,000 FEET WITH NO
SIGNIFICANT WEATHER AND/OR OBSTRUCTIONS TO VISIBILITY.

* THESE STATIONS ARE NOT UNDER NWS QUALITY CONTROL. THEY ALSO MAY NOT
  REPORT WEATHER SUCH AS PRECIPITATION OR FOG.

ILZ001-002-007-009-015-016-024-241100-
NORTHWEST ILLINOIS

CITY           SKY/WX    TMP DP  RH WIND       PRES   REMARKS
MOLINE         PTCLDY    42  30  62 S13       29.76F
STERLING*      CLOUDY    35  29  78 VRB3      29.79F
SAVANNA*       CLOUDY    34  29  83 S8        29.76F WCI  27
$$

ILZ003-004-008-010-011-017-018-241100-
NORTH CENTRAL ILLINOIS

CITY           SKY/WX    TMP DP  RH WIND       PRES   REMARKS
ROCKFORD       PTCLDY    35  25  66 S8        29.80F WCI  29
FREEPORT*      CLEAR     37  29  72 S15       29.77F WCI  28
ROCHELLE*      CLEAR     31  29  90 S8        29.80F WCI  24
DE KALB*       CLEAR     30  27  88 S9        29.81F WCI  22
PERU*          CLOUDY    33  27  77 S5        29.82F WCI  29
$$

ILZ005-006-012>014-019>023-241100-
NORTHEAST ILLINOIS

CITY           SKY/WX    TMP DP  RH WIND       PRES   REMARKS
CHICAGO-OHARE  PTCLDY    36  27  69 S7        29.80F WCI  30
CHICAGO-MIDWAY NOT AVBL
AURORA         CLEAR     31  26  82 S6        29.82F WCI  25
LANSING*       CLEAR     30  28  90 S7        29.84F WCI  24
JOLIET*        PTCLDY    32  29  90 CALM      29.84S
WAUKEGAN       PTCLDY    34  28  79 SW9       29.77F WCI  27
DUPAGE AIRPORT CLEAR     31  28  89 S6        29.81F WCI  25
KANKAKEE*      CLEAR     32  26  80 S7        29.86F WCI  25
WHEELING       CLOUDY    35  28  75 S6        29.81F WCI  30
MORRIS*        PTCLDY    30  26  84 S3        29.83F
ROMEOVILLE*    PTCLDY    30  27  89 S8        29.82F WCI  22
NORTHERLY ISL    N/A     38  26  62 S6          N/A  WCI  33
$$

LMZ740>746-241100-
SOUTHERN LAKE MICHIGAN

STATION/POSITION SKY/WX   TEMP    WIND        PRES    VSBY  WAVE
                          AIR SEA DIR/SP/G                  HT/PER
                          (F)     (DEG/KT/KT) (MB)    (MI)  (FT/S)
SOUTHERN BUOY              45 47  220/ 17/ 21 1009.3          3/ 4
HARRISON CRIB              40     210/ 16/ 18   N/A
BURNHAM HARBOR             38     220/  7/  9   N/A
CALUMET HARBOR             35     200/  6/  9 1009.5F
BURNS HARBOR               35     190/ 11/ 14 1010.8F
MICHIGAN CITY              35     170/ 12/ 14   N/A
$$

ILZ025>027-034>036-040-047-049-050-058-095>099-241100-
WEST-CENTRAL ILLINOIS

CITY           SKY/WX    TMP DP  RH WIND       PRES   REMARKS
QUINCY         CLEAR     41  32  70 S12       29.81F
GALESBURG*     CLOUDY    37  32  82 S6        29.81F WCI  32
MACOMB*        CLOUDY    39  32  75 S6        29.83F WCI  35
JACKSONVILLE*  CLOUDY    38  28  69 S7        29.84F WCI  32
PITTSFIELD*    MOCLDY    40  32  73 S8        29.85F
$$

ILZ028>032-037-038-041>044-048-051>054-059>061-241100-
CENTRAL ILLINOIS

CITY           SKY/WX    TMP DP  RH WIND       PRES   REMARKS
PONTIAC        CLEAR     32  30  95 S6        29.85F WCI  26
BLOOMINGTON    CLEAR     33  28  81 S10       29.86S WCI  25
DECATUR        CLEAR     33  27  78 SW7       29.88F WCI  27
PEORIA         PTCLDY    33  28  81 S7        29.84F WCI  27
LACON*         PTCLDY    35  29  78 S3        29.82F
LINCOLN*       CLEAR     33  29  86 S6        29.86F WCI  27
SPRINGFIELD    CLEAR     36  29  75 S8        29.86F WCI  30
TAYLORVILLE    CLOUDY    32  27  83 S5        29.88S WCI  27
$$

ILZ033-039-045-046-055>057-062-063-241100-
EAST-CENTRAL ILLINOIS

CITY           SKY/WX    TMP DP  RH WIND       PRES   REMARKS
CHAMPAIGN      CLEAR     31  26  82 S7        29.88F WCI  24
DANVILLE*      CLEAR     32  25  77 S6        29.86F WCI  26
RANTOUL*       CLEAR     32  29  88 S6        29.87F WCI  26
MATTOON        CLEAR     35  27  72 S8        29.89S WCI  29
PARIS*         CLOUDY    31  27  83 S6        29.91F WCI  25
$$

ILZ079-100>102-241100-
SOUTHWEST ILLINOIS

CITY           SKY/WX    TMP DP  RH WIND       PRES   REMARKS
ALTON          CLOUDY    30  27  90 E3        29.89F
BELLEVILLE     CLOUDY    33  26  75 CALM      29.89F
CAHOKIA*       PTCLDY    32  26  78 SW3       29.90F
SPARTA*        CLOUDY    38  28  66 S3        29.91F
$$

ILZ064>066-069>071-074>076-080>082-084>086-088>090-092>094-241100-
SOUTH-CENTRAL ILLINOIS

CITY           SKY/WX    TMP DP  RH WIND       PRES   REMARKS
CARBONDALE     CLEAR     33  27  78 SW8       29.93F WCI  26
CAIRO*         CLEAR     35  27  73 CALM      29.96F
EFFINGHAM*     CLEAR     33  27  80 SE3       29.92S
MARION         CLEAR     37  28  71 S6        29.94S WCI  32
MT. VERNON     CLEAR     26  24  92 CALM      29.92F
CENTRALIA*     CLEAR     35  30  82 S6        29.90F WCI  30
SALEM*         CLOUDY    36  28  75 S5        29.90F WCI  32
METROPOLIS*    CLOUDY    29  27  90 CALM      29.97F
$$

ILZ067-068-072-073-078-083-087-091-241100-
SOUTHEAST ILLINOIS

CITY           SKY/WX    TMP DP  RH WIND       PRES   REMARKS
LAWRENCEVILLE  CLOUDY    32  25  75 S7        29.94F WCI  26
FLORA*         CLOUDY    32  27  81 S6        29.92S WCI  26
FAIRFIELD*     CLOUDY    32  26  78 CALM      29.92S
HARRISBURG*    CLOUDY    31  28  86 CALM      29.94F
ROBINSON*      CLOUDY    29  24  81 S5        29.93F WCI  24
CARMI*         CLOUDY    32  28  84 S9        29.93F WCI  24
$$

ABBREVIATIONS USED IN REMARKS
   TC - TEMPERATURE IN CELSIUS
  WCI - WIND CHILL INDEX
   HX - HEAT INDEX
  VSB - VISIBILITY
$$





USA.gov is the U.S. government's official web portal to all federal, state and local government web resources and services.